Tracking 28125 objects as of 3-Oct-2023
HD Live streaming from Space Station
objects crossing your sky now

COSMOS 1823 DEB

Track COSMOS 1823 DEB now!
10-day predictions


NORAD ID: 18729
Int'l Code: 1987-020G
Perigee: 1,482.4 km
Apogee: 1,686.4 km
Inclination: 73.8 °
Period: 117.7 minutes
Semi major axis: 7955 km
RCS: 0.1765 m2 (medium)
Launch date: February 20, 1987
Source: Commonwealth of Independent States (former USSR) (CIS)
Launch site: PLESETSK MISSILE AND SPACE COMPLEX (PKMTR)

Note: This is SATELLITE DEBRIS
Your satellite tracking list
Your tracking list is empty




NASA's NSSDC Master Catalog

Two Line Element Set (TLE):
1 18729U 87020G   23275.75193618  .00000251  00000-0  24043-2 0  9996
2 18729  73.8190  11.3410 0128229 168.3586 267.8926 12.23516811598099
Source of the keplerian elements: AFSPC